ECMWFNIL_850_thetae_090.txt.gz
Theta_e
325 325 326 326 326 328 334 336 333 330 332 334 334 332 330 333 341 348 348 347 346 345 344 342 343 345 342 341 346 353 352 347 350 350 343 341 343 349 353 350 351 350
324 325 325 325 325 326 329 332 332 332 333 335 336 337 336 336 342 346 345 346 345 345 345 343 343 342 342 342 341 344 345 343 351 354 347 341 342 349 355 351 349 348
325 325 325 325 325 326 328 331 333 336 337 337 337 341 345 344 345 344 341 342 344 345 344 344 344 343 342 343 341 340 340 339 346 354 352 345 340 345 353 355 351 347
327 326 326 326 326 327 329 331 334 337 341 341 338 339 347 351 350 346 341 339 341 344 344 344 344 344 342 342 342 340 340 339 341 349 353 349 342 342 350 355 356 353
330 330 329 329 330 331 331 333 336 338 340 343 341 339 345 352 353 347 340 337 339 340 343 343 343 344 342 342 342 341 341 341 339 341 348 349 344 342 349 354 354 355
335 334 334 333 334 335 334 334 337 339 340 343 343 341 344 350 352 349 340 337 339 339 341 343 343 343 344 342 341 341 341 342 341 340 340 342 341 342 350 355 352 350
338 336 337 337 336 337 337 337 338 340 340 342 345 343 344 347 349 347 341 337 338 339 339 341 341 342 344 343 341 342 340 341 346 347 342 338 339 340 348 357 355 348
339 339 339 339 339 340 341 341 342 341 340 342 345 347 346 347 348 345 341 337 338 340 339 340 341 341 342 342 341 342 341 341 346 349 346 341 340 339 342 351 355 349
342 342 342 342 342 343 343 344 345 342 341 341 345 348 349 349 349 345 340 338 338 339 339 339 341 341 341 342 341 341 342 341 343 345 345 342 340 342 340 342 347 344
343 344 344 344 344 343 344 343 343 340 340 339 343 349 351 350 350 347 342 340 339 338 338 339 341 340 340 341 341 341 343 342 342 344 345 342 338 342 344 342 342 341
344 345 345 344 344 344 343 342 343 342 339 339 343 349 352 351 349 348 345 342 340 337 337 337 338 339 338 339 339 340 341 342 342 343 345 343 339 339 341 341 340 339
346 346 346 345 345 345 343 342 348 349 344 341 341 345 352 354 350 347 347 343 340 338 338 336 336 337 336 337 337 337 338 340 341 342 343 343 341 339 338 339 338 338
348 347 347 347 346 348 348 347 352 355 351 346 344 343 350 356 353 348 347 345 341 339 339 337 336 336 336 336 337 336 336 337 338 340 341 341 340 339 339 337 336 336
352 349 350 351 350 351 353 352 353 356 356 352 348 345 349 355 356 352 348 347 344 341 339 339 337 337 336 335 335 336 336 336 336 337 337 338 339 338 339 338 338 337
356 353 352 353 353 351 354 355 355 355 356 355 353 350 348 352 356 355 352 350 349 345 341 340 338 337 336 335 335 336 336 336 335 335 335 336 336 335 336 336 338 344
358 357 356 355 355 353 353 355 356 356 356 356 356 354 352 351 353 356 356 352 352 351 346 344 342 337 334 335 335 335 335 336 336 336 335 336 336 336 336 336 336 340
360 359 358 356 355 355 354 354 355 356 355 356 357 356 354 353 351 355 356 354 354 353 349 345 343 339 335 334 334 334 335 336 337 337 337 337 339 339 339 340 340 340
361 360 359 358 356 356 354 354 354 356 356 356 356 357 356 355 353 353 355 356 356 356 352 347 343 339 336 335 335 334 335 335 336 337 338 338 340 340 340 340 342 344
361 360 360 360 358 356 355 354 354 355 356 355 356 356 356 356 355 353 354 356 356 356 356 353 349 343 337 336 336 335 334 335 335 337 338 339 340 342 343 341 339 340
362 361 360 359 358 357 356 354 354 354 356 356 355 355 356 357 356 354 354 355 356 357 357 358 356 352 345 340 338 336 335 336 336 337 341 345 347 347 348 347 342 337
363 362 361 360 359 357 357 356 354 353 355 356 356 356 356 357 357 356 355 354 355 356 357 358 359 358 354 350 345 341 339 338 339 340 344 349 352 352 352 351 348 344
363 362 362 362 360 357 357 356 355 354 354 355 356 357 357 357 357 357 357 356 354 354 357 358 359 359 359 358 355 352 349 347 346 344 344 347 352 354 354 354 352 351
364 363 363 363 361 358 356 356 355 354 353 355 356 357 359 359 358 358 358 357 356 355 355 357 359 360 361 360 360 359 357 355 353 349 346 345 346 351 354 355 355 352
364 365 365 364 361 359 357 355 354 354 354 354 355 357 360 361 361 359 359 359 359 357 356 355 356 358 360 360 361 361 360 358 355 353 349 344 342 343 346 349 349 348
366 366 366 364 361 360 358 356 354 353 353 353 353 355 359 362 362 361 361 361 359 359 358 357 356 356 358 359 359 359 359 358 356 354 350 345 342 339 339 340 341 341
366 366 367 366 363 361 360 359 356 354 354 353 352 354 357 360 362 362 362 362 361 361 360 359 357 356 357 357 357 357 356 354 354 353 350 346 342 339 338 337 337 337

ECMWFNIL_850_thetae_093.txt.gz
Theta_e
330 329 326 325 325 327 326 326 328 329 330 329 328 329 328 329 337 341 342 344 344 342 344 343 341 343 345 345 350 352 348 345 344 340 336 332 331 334 336 343 349 349
329 329 328 326 325 325 325 326 327 328 329 330 328 329 330 329 330 334 337 342 344 343 342 342 340 340 342 342 346 351 347 345 345 342 341 338 331 329 336 342 346 349
325 327 328 327 326 326 326 326 326 326 327 329 328 329 331 331 330 331 333 338 343 343 341 342 341 341 341 340 342 346 345 344 345 343 343 342 336 333 333 339 344 346
324 325 326 327 327 326 326 326 326 325 326 327 327 328 330 332 332 332 332 334 338 342 342 342 341 341 341 341 340 341 341 341 344 345 344 343 341 337 335 341 345 344
324 323 325 325 326 326 326 326 327 326 326 326 326 328 331 332 332 333 334 333 334 338 341 342 342 340 340 340 341 340 339 339 341 344 344 343 342 340 338 341 346 346
326 324 324 324 324 325 326 326 326 326 326 326 326 328 331 332 333 334 335 336 334 336 340 342 342 341 339 339 340 340 340 339 339 341 342 341 340 341 341 340 345 349
330 326 324 324 324 325 325 325 325 326 326 326 326 328 332 333 333 333 335 337 336 335 337 341 342 341 340 339 338 339 340 340 340 340 340 339 339 340 341 341 344 349
335 331 328 325 324 324 325 325 325 326 325 326 327 330 333 334 334 333 334 337 339 338 336 338 341 341 341 340 338 338 339 340 340 339 338 338 338 338 339 341 343 346
341 337 332 329 326 325 325 326 325 326 326 328 329 331 333 335 334 334 333 335 338 339 337 338 339 340 341 340 340 339 339 339 340 340 338 337 336 336 337 338 340 342
346 342 337 333 330 328 327 327 327 328 328 330 332 333 334 335 336 335 334 335 336 337 337 338 338 338 339 339 339 339 339 339 338 339 338 337 337 336 335 335 336 337
350 347 343 339 336 333 331 331 331 332 332 333 334 335 335 337 337 337 337 336 336 335 336 337 338 337 338 338 338 338 339 339 339 338 338 338 337 337 337 337 337 338
354 351 347 343 340 337 336 335 335 336 336 336 336 336 338 339 339 339 338 338 336 335 335 336 337 337 337 337 337 338 339 339 339 340 339 338 337 337 337 338 339 339
356 353 350 346 342 339 339 339 339 339 339 338 338 340 341 341 340 339 338 337 337 336 335 335 336 337 337 337 337 338 337 338 339 339 340 340 339 338 337 337 338 338
358 355 352 349 345 342 340 341 341 342 342 342 343 344 344 343 340 338 339 338 337 338 336 335 335 336 336 336 337 337 336 337 337 338 339 339 340 339 338 337 336 336
359 357 355 351 348 345 343 343 343 345 346 346 346 346 345 344 342 340 339 338 338 338 338 337 336 336 336 335 335 336 335 335 335 335 337 337 338 338 338 336 335 334
361 359 356 354 351 348 345 345 346 348 349 348 347 345 344 346 346 345 342 340 339 339 339 339 337 335 336 336 336 335 334 334 334 334 334 335 336 337 336 336 335 334
362 360 358 356 354 351 349 348 349 350 350 350 348 346 345 345 348 349 348 344 342 340 339 339 337 336 335 335 336 336 335 334 334 333 334 334 334 334 334 335 334 333
364 362 360 357 355 353 351 350 350 351 352 351 350 349 348 347 348 351 351 348 346 344 340 339 336 334 334 335 335 335 335 335 334 333 334 334 334 334 334 333 334 334
364 363 361 358 356 354 353 352 352 352 352 352 352 352 352 350 349 351 352 352 350 348 344 341 338 334 334 334 335 335 335 335 335 335 334 334 335 335 335 335 334 335
365 364 362 360 358 356 354 353 353 353 353 353 354 355 355 354 352 351 353 354 353 351 349 345 341 337 335 335 334 335 335 335 336 336 336 336 336 335 335 335 335 335
365 364 363 362 359 357 356 355 354 354 354 354 355 356 356 355 354 352 352 353 354 354 352 350 346 341 339 338 337 336 336 337 338 340 339 339 338 337 336 335 335 335
364 364 364 362 360 358 357 356 355 355 355 355 356 356 356 357 356 354 353 353 353 354 354 352 350 346 344 343 343 342 342 342 343 344 344 343 341 340 338 337 336 337
364 364 363 362 362 360 357 357 356 355 356 356 356 357 357 357 357 356 354 353 353 354 354 353 352 349 348 347 346 348 349 349 348 348 347 346 344 343 342 341 340 340
364 364 363 363 362 361 359 358 357 356 356 356 356 357 357 357 356 356 356 354 352 353 353 355 354 352 350 350 350 352 353 353 354 353 352 350 348 348 347 346 344 344
364 364 363 363 363 362 361 359 358 357 356 355 356 357 356 357 356 356 356 355 354 353 352 354 355 355 354 353 355 355 355 356 357 358 358 356 353 351 350 348 347 344
365 364 363 363 364 362 361 361 359 359 358 357 356 356 356 357 356 356 356 356 355 354 352 353 354 355 356 356 355 356 357 358 359 360 359 357 354 351 350 348 346 344

ECMWFNIL_850_thetae_096.txt.gz
Theta_e
329 330 331 332 335 334 332 335 339 339 339 341 342 340 338 338 340 342 342 343 343 341 340 339 339 342 343 346 347 346 345 342 336 331 331 337 342 342 339 340 343 345
329 329 331 331 332 333 331 330 332 334 335 336 337 336 334 333 336 340 344 344 343 342 341 340 339 338 339 342 346 347 344 343 342 335 331 334 338 338 339 342 345 346
329 329 330 329 329 330 330 330 329 329 330 331 331 330 330 329 330 335 340 342 344 343 341 341 340 339 338 337 341 346 345 342 342 340 335 333 333 333 336 340 342 345
330 330 329 328 327 328 328 329 329 329 328 328 328 327 327 328 328 330 334 336 340 343 342 341 340 339 338 337 338 342 344 342 341 341 339 337 336 332 331 334 338 343
330 330 330 328 328 327 327 327 328 329 327 326 326 326 326 328 329 329 330 330 334 340 342 342 341 340 340 340 338 339 341 342 342 342 340 339 340 337 333 333 337 342
331 331 331 330 329 328 326 326 326 327 326 326 326 326 327 327 328 329 330 329 330 336 342 343 341 340 339 340 340 338 339 340 341 342 341 338 338 341 341 337 335 340
333 330 330 331 330 330 328 326 326 325 325 326 326 326 326 326 327 328 329 330 329 333 338 341 342 341 340 340 339 338 338 338 339 340 341 339 337 338 342 341 336 336
339 333 331 331 330 330 329 328 327 326 325 325 325 326 326 325 325 327 328 330 330 331 334 337 340 342 341 339 338 337 338 338 338 338 339 340 339 336 338 340 339 336
345 339 334 333 332 331 330 328 327 327 326 326 326 326 326 326 326 326 328 330 330 331 332 334 337 340 342 341 338 337 337 337 338 338 338 338 339 339 337 338 339 338
349 346 340 336 334 332 329 328 327 326 326 326 326 326 325 326 325 325 328 330 330 331 332 333 335 338 341 342 340 338 337 336 337 338 338 337 338 338 339 338 339 338
351 350 346 342 337 333 331 328 327 326 326 325 326 326 326 326 325 325 327 331 331 331 331 333 334 336 339 341 341 340 338 336 336 337 338 337 336 336 337 337 338 337
353 353 351 347 342 338 333 330 329 327 326 325 325 325 325 325 325 326 326 330 332 331 331 332 333 335 337 339 340 340 340 339 337 336 336 336 336 336 336 336 335 336
355 354 353 351 348 344 339 334 331 329 327 326 325 325 325 325 325 325 326 329 331 331 332 332 333 334 335 337 339 339 340 339 339 338 336 336 336 336 337 337 335 336
356 355 355 354 351 349 345 340 336 333 330 328 326 326 325 325 325 326 327 329 332 332 332 333 333 334 334 336 337 338 339 338 339 339 338 337 337 337 336 336 336 336
357 356 356 355 354 352 349 346 342 338 335 332 330 329 327 327 327 327 329 331 332 333 333 334 335 334 334 335 336 337 337 337 337 338 338 338 338 337 337 337 337 336
358 357 357 357 356 355 353 350 347 343 340 337 334 332 330 330 330 331 332 333 333 334 335 336 336 335 334 333 334 335 337 336 337 337 337 338 339 338 337 337 336 336
359 359 359 359 358 357 356 354 351 347 345 341 339 336 335 334 335 335 336 335 335 334 335 336 336 335 334 333 333 334 335 335 335 336 337 337 338 338 337 336 335 335
361 361 360 360 359 358 357 356 354 351 348 345 343 342 339 338 338 338 338 337 337 337 337 336 336 335 335 335 333 333 334 334 334 335 335 336 336 336 336 336 335 335
362 362 362 362 361 360 358 357 356 353 350 348 347 345 343 342 341 340 340 340 340 339 338 336 336 335 336 336 335 334 334 334 335 334 335 335 335 334 334 335 335 334
363 363 363 363 362 361 360 358 356 355 353 350 348 347 347 345 344 342 343 343 343 341 338 336 336 336 337 337 336 336 335 334 335 335 335 335 335 335 334 334 334 334
363 363 364 363 364 363 362 360 358 356 355 352 350 349 348 347 345 345 346 346 345 342 339 337 337 337 336 338 338 337 337 338 337 337 336 336 335 336 336 334 334 334
364 364 364 364 364 364 363 362 360 358 356 354 352 350 350 349 348 348 348 347 346 344 341 340 338 337 338 338 339 339 340 341 342 342 341 340 339 337 336 335 335 335
365 365 364 364 365 364 364 363 362 360 357 356 354 352 352 352 351 351 350 349 347 345 344 342 340 338 338 338 339 340 342 343 344 345 346 344 341 338 337 336 336 336
364 365 365 365 365 364 364 364 363 361 359 357 355 354 353 353 353 353 352 351 349 347 346 345 342 341 339 338 338 341 344 346 346 347 347 346 344 341 339 338 337 336
361 364 365 365 365 365 365 365 363 363 362 358 357 355 354 354 354 354 353 353 351 350 349 348 347 344 342 339 339 342 346 349 349 349 348 347 345 344 342 340 338 337
360 364 365 365 364 364 365 365 364 363 363 361 358 356 355 355 355 355 355 354 353 353 352 352 351 349 346 344 342 343 347 350 352 352 351 350 348 346 345 343 342 340

ECMWFNIL_850_thetae_099.txt.gz
Theta_e
331 328 327 329 330 330 329 330 331 334 338 341 341 340 340 338 339 340 340 340 339 339 339 340 341 340 341 344 344 344 345 343 340 339 339 339 339 340 340 340 339 340
335 330 327 328 329 330 330 330 331 332 335 338 339 340 342 341 341 340 340 340 340 340 340 340 340 339 339 343 344 343 344 344 343 339 334 333 335 337 339 339 338 339
338 333 329 327 328 329 330 330 331 332 334 337 338 340 341 341 341 341 341 342 342 342 341 340 339 338 338 341 343 343 344 343 343 341 336 330 329 333 337 338 339 341
339 336 331 328 328 328 329 330 330 332 333 335 337 339 340 339 339 338 338 340 343 344 343 340 339 338 338 339 339 342 345 345 344 343 339 333 329 330 334 337 340 342
337 337 333 330 328 328 329 329 330 330 331 332 333 335 337 336 334 333 332 333 338 343 344 342 340 339 339 338 337 338 341 346 346 343 341 337 331 329 330 332 337 342
338 337 335 332 330 329 329 328 329 330 329 330 330 331 332 331 329 329 328 328 331 336 340 342 342 341 339 339 338 337 337 342 346 344 341 339 335 331 330 329 332 336
342 339 336 334 331 329 329 328 329 329 329 329 329 329 329 329 328 327 327 327 328 330 332 334 338 341 341 339 339 338 337 339 342 343 341 340 338 336 333 330 329 330
345 343 339 337 333 330 329 328 328 328 329 329 329 328 328 327 327 326 326 327 328 329 329 329 332 338 342 341 339 338 338 338 339 341 341 341 340 339 336 332 330 329
346 346 343 341 337 332 330 329 328 328 328 329 329 328 328 327 327 326 326 327 328 329 329 329 330 333 338 341 341 339 339 338 338 339 339 339 340 340 339 335 333 331
347 347 346 345 342 336 331 329 329 328 328 328 328 328 327 326 326 325 326 327 327 328 328 329 329 330 333 337 340 341 340 339 338 338 338 338 338 339 339 337 335 333
348 348 348 347 345 342 335 330 329 329 328 328 328 328 327 326 326 325 325 326 326 326 327 328 329 330 330 333 336 339 340 340 339 338 337 337 337 338 338 338 337 334
348 349 349 348 348 347 342 335 330 328 328 328 328 328 328 328 327 326 326 326 326 325 326 326 327 329 330 331 333 335 338 341 341 339 338 337 337 337 337 338 338 336
349 349 350 350 350 349 348 344 338 331 327 326 326 327 328 328 328 327 327 326 326 326 325 325 326 327 330 331 332 333 335 339 341 341 339 338 337 337 337 337 337 337
350 350 350 351 351 351 350 349 346 340 333 328 326 326 326 326 326 326 326 326 326 326 325 325 325 326 328 330 331 332 333 336 339 341 341 340 338 337 337 337 337 337
350 351 351 352 352 352 352 351 350 348 343 337 332 328 326 326 325 325 325 325 325 325 325 325 325 325 326 329 331 332 333 334 336 338 340 340 339 338 338 338 337 337
351 352 352 353 353 353 353 353 352 351 349 346 341 337 332 329 327 326 325 325 324 324 325 325 325 325 325 328 330 331 333 334 334 336 337 338 339 339 339 338 337 337
352 352 353 353 354 354 354 354 354 353 352 351 348 345 341 337 333 331 328 327 326 325 325 324 325 325 326 328 330 331 332 334 335 335 336 337 337 338 337 337 337 338
354 354 354 355 355 355 355 355 355 355 354 353 352 350 348 344 341 337 334 332 330 327 326 326 326 326 327 329 331 331 331 333 335 336 336 336 336 337 337 337 337 337
355 355 355 356 356 356 356 356 356 356 356 355 354 353 351 349 347 343 340 337 335 332 330 330 330 330 330 331 332 331 331 333 335 336 337 337 336 336 336 336 336 336
356 356 357 357 357 357 357 357 357 357 357 357 356 356 354 353 351 348 345 342 339 337 335 334 334 333 333 334 333 333 332 333 334 336 337 337 337 335 335 335 335 335
357 358 358 358 358 358 358 358 358 359 359 358 358 358 356 355 354 351 349 346 343 340 338 337 337 336 336 336 336 335 334 334 334 335 337 338 338 336 335 334 334 334
359 359 359 359 359 359 359 359 360 360 360 360 360 359 358 357 355 354 352 349 346 344 341 340 339 338 339 339 338 338 337 337 336 336 337 339 338 338 336 334 334 334
360 360 360 360 360 360 360 361 361 361 362 362 361 360 360 358 356 355 353 351 349 346 343 342 340 340 341 341 340 340 340 339 338 337 338 339 339 339 338 336 334 334
362 362 362 362 361 362 362 362 362 362 362 362 362 362 361 360 358 356 354 351 350 348 344 343 341 340 341 342 342 342 342 341 340 339 339 340 341 341 340 338 336 335
359 361 362 362 363 362 362 363 363 363 363 363 363 363 362 362 360 358 355 352 349 348 347 345 343 341 342 343 343 344 344 342 342 341 341 341 342 343 343 342 340 338
359 360 359 360 360 360 361 362 363 363 364 363 363 364 363 363 362 360 359 355 351 349 348 346 345 343 343 343 344 344 345 344 343 343 342 342 342 344 345 345 343 341

ECMWFNIL_850_thetae_102.txt.gz
Theta_e
339 336 334 334 335 334 335 337 340 342 342 341 339 338 338 338 337 338 340 341 340 340 341 341 343 345 345 345 345 345 344 343 340 338 337 338 340 341 341 340 340 341
341 338 335 333 333 334 334 335 337 339 340 340 340 340 340 340 339 338 339 340 341 340 340 340 341 343 345 345 346 346 345 344 343 341 339 338 339 339 339 340 341 341
340 340 338 334 332 332 332 333 335 336 337 338 339 340 342 342 342 340 340 340 340 340 340 340 341 342 344 345 346 347 346 345 345 344 342 339 337 334 333 336 339 341
337 338 338 336 333 331 330 331 333 333 334 334 336 338 341 342 343 343 342 341 341 341 341 341 341 342 343 344 345 346 347 346 346 346 344 341 338 333 329 331 336 339
337 336 336 337 336 333 330 329 330 331 331 331 332 335 338 341 342 342 343 343 341 341 342 342 342 341 341 342 343 344 345 346 347 347 345 343 340 335 330 329 333 337
339 338 336 337 336 335 332 328 327 329 330 330 330 331 334 338 340 341 342 342 341 340 340 341 343 343 342 341 342 342 342 343 344 345 346 345 342 338 334 330 330 334
342 340 339 338 337 336 334 331 328 328 328 329 329 329 331 334 338 340 341 340 340 339 337 337 339 341 342 342 342 341 341 340 339 340 342 344 343 341 338 333 330 330
344 343 341 340 338 336 335 333 331 328 327 328 329 329 329 330 332 335 336 336 336 335 334 333 332 334 337 338 340 341 340 339 338 338 339 341 343 342 340 338 335 333
345 345 343 342 341 339 336 334 332 330 329 328 328 328 328 328 328 328 330 330 330 330 330 330 329 330 331 332 334 337 340 340 339 338 338 339 340 341 341 341 340 338
345 345 345 344 343 342 340 337 334 331 329 329 328 328 328 327 327 326 327 327 327 327 327 327 327 328 329 330 330 332 337 340 340 339 338 338 338 339 340 340 340 340
345 346 346 345 345 345 344 342 340 335 331 329 328 328 327 327 327 327 327 326 326 326 326 325 326 326 327 329 329 330 332 335 338 340 339 338 338 338 338 338 339 339
346 346 346 346 345 346 345 345 344 342 337 332 329 328 328 327 327 326 326 326 326 326 325 325 325 325 326 326 327 328 330 331 334 336 338 339 338 337 337 337 337 338
347 347 347 347 346 346 346 346 346 346 343 339 334 330 328 327 327 327 326 326 326 325 325 325 325 325 325 325 325 326 327 329 331 332 334 337 338 338 337 336 336 336
347 347 347 347 347 347 347 347 347 347 347 346 342 336 330 328 328 328 327 326 326 326 325 325 326 325 325 326 325 325 325 326 329 331 332 333 336 338 338 337 336 335
347 347 347 347 347 347 347 348 348 348 348 348 347 344 337 332 329 328 328 327 327 327 326 326 326 325 325 325 325 325 325 325 326 329 331 332 333 335 337 338 338 336
347 347 347 347 347 348 348 348 348 349 350 349 349 349 346 342 336 331 328 327 326 326 326 326 326 325 325 325 325 325 325 325 325 326 329 332 332 333 335 337 338 338
348 348 347 348 348 348 348 348 349 349 350 351 351 351 350 349 346 341 335 331 327 326 325 325 324 324 324 325 325 325 325 325 325 325 327 330 331 333 333 334 336 337
348 348 348 348 348 349 348 349 350 350 350 351 352 352 352 351 351 349 345 340 335 331 328 326 325 324 324 324 324 324 324 324 325 324 326 329 331 332 333 334 335 336
349 349 349 349 349 349 349 349 350 351 351 352 352 353 353 353 353 352 351 349 345 341 335 331 328 326 325 324 324 324 324 324 325 325 326 329 330 331 332 333 334 335
350 349 350 350 350 350 350 351 351 351 352 353 353 354 354 354 354 354 353 353 351 349 344 338 333 329 328 328 327 326 326 327 327 328 329 330 331 331 332 333 334 334
351 351 351 351 352 352 352 352 353 353 354 354 354 355 355 355 355 355 355 355 354 354 352 347 339 333 332 332 331 331 331 332 332 331 331 332 332 332 332 332 333 334
352 353 353 353 353 353 354 354 354 355 355 356 356 356 356 356 357 357 356 356 356 356 355 352 345 338 336 335 334 335 335 335 335 334 334 335 334 333 333 332 333 334
354 353 354 354 355 355 355 355 356 356 357 357 357 357 357 358 358 358 358 358 358 357 357 353 347 341 340 337 336 337 338 337 337 336 336 337 336 335 334 333 333 334
356 356 356 356 356 356 356 356 357 357 357 358 358 358 358 359 360 360 360 360 359 359 358 355 349 343 341 340 338 339 339 339 338 338 338 339 338 337 337 335 334 334
358 358 358 358 357 357 357 358 358 358 359 359 359 359 360 360 360 360 361 361 361 360 360 358 354 347 342 341 341 340 340 340 340 340 340 340 340 339 339 338 336 334
359 359 360 360 360 360 359 359 359 360 360 360 360 360 361 361 361 361 361 362 362 361 361 361 358 353 347 342 342 342 342 342 341 341 341 341 341 341 341 340 338 336

ECMWFNIL_850_thetae_105.txt.gz
Theta_e
331 330 330 331 332 333 333 334 337 341 344 347 346 343 341 341 340 340 340 340 341 341 342 343 343 344 344 345 345 344 344 343 342 341 339 338 338 339 340 342 341 340
333 332 331 330 330 331 332 333 333 336 340 344 346 344 343 343 342 340 339 339 340 341 341 341 341 342 343 344 344 344 344 343 343 344 342 339 338 338 339 341 341 341
336 336 334 331 330 330 331 332 332 333 336 339 344 344 343 343 343 342 340 338 339 341 341 341 341 341 341 343 343 344 344 345 345 345 343 341 340 338 338 339 339 340
337 337 336 334 332 330 330 330 331 332 333 336 339 342 343 343 343 344 342 340 339 340 341 341 341 341 341 341 342 343 345 346 347 345 344 344 342 340 338 336 335 336
339 336 337 337 335 333 331 329 329 330 330 332 335 338 340 342 343 344 344 342 342 342 342 342 342 342 341 341 341 342 344 346 347 347 345 345 345 343 341 337 332 332
342 338 336 337 337 336 334 330 328 328 328 329 331 333 336 338 340 342 343 343 343 343 343 343 343 343 342 342 342 342 342 343 345 346 346 346 347 346 345 341 335 331
345 342 339 337 337 337 336 333 330 328 327 327 328 330 331 333 336 340 342 342 343 343 343 343 343 344 344 344 343 342 342 342 342 343 344 344 346 347 346 343 339 334
345 345 343 339 338 336 336 335 333 331 328 327 326 327 329 330 332 336 339 341 342 342 342 342 341 341 342 342 342 342 342 342 341 341 341 341 342 343 345 344 342 339
345 345 345 343 340 339 337 336 336 334 331 329 327 327 327 328 329 331 335 338 341 341 341 340 338 337 336 335 336 336 337 338 340 341 340 340 339 340 342 343 342 340
345 346 345 345 343 341 341 339 337 336 334 332 330 328 327 327 328 329 331 334 338 340 339 337 334 333 331 330 330 330 331 332 336 339 340 340 339 339 339 340 341 340
346 346 346 345 345 344 343 342 341 339 336 334 332 331 329 327 327 327 328 330 333 334 333 331 330 330 329 328 328 328 329 329 331 334 337 339 339 339 338 338 339 339
346 346 346 346 345 345 344 344 343 342 340 337 335 333 331 329 328 327 327 327 328 328 328 327 327 327 327 327 327 327 327 328 329 329 332 335 337 339 339 338 338 338
346 346 346 346 346 346 345 345 345 344 343 342 340 338 335 332 329 328 327 327 326 326 326 326 326 326 326 326 326 326 326 326 327 327 328 330 332 335 337 338 338 337
346 346 346 346 346 346 345 345 345 345 345 344 344 343 341 337 333 329 327 327 327 326 326 326 326 326 326 326 325 325 325 325 326 326 326 327 328 330 333 335 337 337
346 346 346 346 346 346 346 346 346 346 346 346 345 345 344 343 340 336 332 329 327 327 326 326 326 326 326 325 325 325 325 325 325 325 325 325 326 328 330 332 334 335
346 346 346 346 346 346 346 346 346 346 346 346 346 346 346 346 345 344 340 335 330 328 327 327 326 326 326 325 325 325 325 325 325 326 326 325 325 326 328 330 331 333
346 346 346 346 346 346 347 346 347 347 347 347 347 347 347 347 347 347 347 344 339 333 328 327 327 326 326 326 325 325 325 326 326 325 325 325 325 324 325 328 330 331
347 346 346 346 346 347 347 347 347 347 347 347 347 347 347 348 348 349 349 349 347 342 335 329 326 325 326 325 325 325 325 325 326 325 325 325 325 325 325 326 329 331
346 347 347 347 347 347 347 347 347 347 347 347 348 348 347 348 349 349 350 351 351 349 344 336 329 324 324 324 324 324 325 325 324 324 324 324 324 324 324 325 327 329
347 347 347 347 347 347 347 347 347 348 348 347 348 348 348 348 349 350 351 351 352 352 351 347 339 329 325 324 324 323 324 324 324 324 324 324 324 324 324 324 326 328
347 348 348 348 348 348 348 348 348 348 348 348 348 348 349 349 350 350 351 352 353 353 353 353 349 340 333 330 326 325 325 325 326 327 326 325 324 324 325 325 326 328
348 348 348 348 348 348 348 348 349 349 349 349 349 349 349 350 351 351 352 353 354 354 354 355 354 351 346 341 335 332 332 333 332 331 330 329 327 326 326 328 329 330
352 350 349 349 349 349 349 349 350 350 350 350 350 350 350 351 352 353 354 355 355 355 356 356 355 354 353 349 346 344 344 342 339 336 335 333 331 330 330 331 331 332
353 353 352 351 350 350 350 350 351 351 351 352 352 352 352 353 354 354 355 356 356 356 357 357 357 357 356 354 353 352 352 350 347 344 342 339 336 335 334 334 333 333
353 354 355 354 352 351 351 352 352 352 353 353 353 354 354 355 355 356 356 357 357 357 358 358 359 359 358 358 357 356 355 354 352 350 348 343 340 337 336 335 335 335
354 354 356 356 354 353 353 353 353 354 354 355 356 356 356 357 357 357 358 358 358 359 359 359 360 360 360 360 359 358 357 355 353 352 349 345 341 339 338 337 336 337

ECMWFNIL_850_thetae_108.txt.gz
Theta_e
331 332 335 339 339 337 336 335 337 342 346 350 351 349 346 343 344 345 344 343 342 341 343 344 344 343 343 343 343 343 344 344 344 342 340 337 336 341 346 347 347 346
335 332 332 335 337 336 335 333 335 338 341 345 350 350 347 343 342 342 343 342 342 342 342 343 344 343 343 343 342 344 345 344 344 344 342 340 337 338 344 348 348 347
340 336 332 331 333 333 333 333 333 335 338 340 344 347 346 345 343 341 342 342 342 344 343 342 344 344 343 343 342 343 345 345 345 345 344 342 340 338 342 347 349 348
343 339 334 331 331 331 331 332 332 333 337 339 339 342 346 346 344 342 342 341 341 343 343 342 343 343 343 343 343 343 344 345 345 346 345 344 342 340 342 346 348 349
344 342 336 332 331 331 330 331 332 332 334 336 336 338 341 342 342 343 343 341 340 341 342 342 342 343 343 342 343 343 344 345 347 345 345 346 344 342 344 346 344 345
345 344 340 335 333 333 331 329 330 331 333 335 336 336 337 338 339 342 344 343 343 343 344 345 344 343 345 343 342 343 344 348 351 347 344 346 347 346 348 348 342 338
345 345 343 339 335 334 333 331 330 329 331 334 334 333 334 335 335 338 341 343 346 348 349 350 347 343 345 345 343 343 343 344 348 346 344 346 347 348 350 348 342 338
345 345 345 343 339 336 334 333 332 329 328 330 331 330 330 331 332 335 336 338 345 347 348 350 348 344 345 347 345 345 344 344 346 344 343 345 345 347 349 347 343 340
346 345 345 345 343 339 336 336 336 332 328 328 329 330 329 328 329 332 332 333 340 343 342 344 346 343 344 347 346 345 344 346 349 347 344 343 343 343 345 346 345 342
346 346 345 345 345 344 340 340 341 339 333 329 329 332 333 329 327 328 330 329 334 339 339 340 343 342 343 344 343 343 342 342 343 344 344 344 343 343 345 345 345 343
346 346 345 345 345 346 345 344 344 344 341 335 331 334 337 335 329 326 328 328 329 333 336 338 340 340 341 341 340 338 335 334 335 336 337 341 342 342 344 343 343 343
346 346 346 346 345 346 347 347 347 347 346 341 334 334 338 340 335 328 326 328 328 329 331 335 339 339 338 337 337 338 335 333 336 336 332 333 336 338 341 342 341 341
346 346 346 346 345 345 347 348 348 348 348 346 340 336 337 341 341 334 328 326 327 327 328 331 336 338 337 333 332 336 336 333 337 340 337 335 334 336 341 345 345 343
347 346 346 345 346 345 345 347 348 348 347 347 345 341 338 340 343 341 335 329 328 328 327 328 330 333 335 331 327 329 331 329 330 335 339 341 339 338 340 345 348 348
347 347 346 345 345 346 345 346 346 347 347 346 345 344 343 342 342 343 342 338 331 328 328 328 328 329 328 328 326 326 327 328 327 326 331 337 339 339 342 345 347 348
346 346 346 346 346 345 346 346 345 346 347 346 345 345 345 345 344 343 344 344 338 331 328 328 328 328 326 326 326 325 325 327 327 326 326 329 330 332 337 342 345 346
348 346 345 346 346 346 346 346 346 346 346 346 345 345 345 345 346 345 344 346 345 339 333 329 328 327 327 326 326 326 326 326 326 325 325 326 325 326 328 334 340 343
350 348 347 345 345 346 346 346 345 345 345 346 345 346 346 345 346 346 345 346 347 347 343 337 331 327 327 327 326 326 326 326 326 326 326 327 327 326 325 327 331 336
348 348 349 349 346 345 345 346 345 345 346 346 346 345 346 346 346 346 347 346 346 347 348 346 341 333 327 325 326 327 326 326 326 326 328 329 329 328 328 326 325 328
349 348 348 348 348 346 346 345 346 346 346 346 346 347 346 346 347 347 346 347 347 347 347 348 348 344 336 328 325 325 326 326 326 326 327 329 329 329 329 328 326 325
353 351 349 347 347 347 347 347 346 347 347 347 348 349 349 347 347 347 347 347 347 348 348 348 349 349 346 340 333 329 327 326 326 326 326 327 327 326 327 327 325 325
353 354 353 351 349 349 349 350 350 348 347 347 348 351 353 352 349 347 348 348 348 348 348 349 350 351 351 350 346 342 339 336 332 330 328 326 326 325 325 325 324 324
353 353 353 354 354 353 353 354 354 353 351 349 348 349 353 354 352 350 348 348 349 348 349 349 350 351 352 353 352 351 350 348 344 340 335 330 327 326 326 325 324 324
353 352 353 354 355 356 356 356 356 357 356 354 351 351 352 353 354 354 352 351 350 350 350 350 351 352 352 353 354 354 354 353 352 349 345 339 335 332 330 328 325 324
349 351 353 353 354 356 358 357 355 356 357 357 356 355 354 354 355 356 355 355 354 353 352 352 352 353 354 354 354 355 355 354 354 354 352 349 345 340 336 333 330 326
343 347 350 352 353 355 357 357 356 356 356 357 357 357 356 356 356 356 356 357 357 356 355 355 355 355 355 355 356 355 356 356 356 356 355 353 351 348 344 341 336 332

ECMWFNIL_850_thetae_111.txt.gz
Theta_e
333 337 340 344 349 350 350 351 351 352 353 354 353 352 352 352 352 354 354 350 345 345 345 343 343 343 344 344 344 346 346 345 346 345 339 336 341 347 349 348 349 349
331 332 335 341 348 349 349 351 351 350 351 353 353 353 353 351 349 349 352 350 346 346 346 343 344 344 344 345 344 344 346 345 348 351 346 338 342 348 349 348 350 349
335 332 331 338 347 348 348 350 351 350 350 351 352 352 353 351 348 344 344 345 347 349 347 343 344 345 343 344 343 344 347 344 346 353 352 342 342 348 349 348 350 350
341 337 333 337 346 349 349 350 350 350 349 350 351 351 352 352 350 346 341 341 344 347 348 346 347 347 344 342 343 344 345 345 346 350 351 345 341 346 350 350 349 350
343 342 338 339 344 349 349 349 349 349 348 349 350 350 351 351 351 349 343 339 339 342 347 347 346 347 345 342 343 344 346 349 348 346 347 346 343 345 349 350 350 350
344 345 342 340 341 345 348 349 348 348 348 348 348 349 350 349 350 350 348 345 343 344 349 350 348 349 350 347 344 345 348 353 354 348 344 347 348 350 351 351 351 350
344 345 344 342 341 341 344 348 349 348 348 348 348 348 350 349 348 349 350 350 350 349 351 352 352 352 353 352 347 344 345 350 354 351 346 346 348 351 352 353 353 351
345 346 344 344 346 343 341 345 348 347 346 347 348 349 349 350 350 348 349 350 351 351 350 351 354 353 352 353 351 346 344 349 353 350 346 346 347 346 350 352 353 350
348 350 347 345 349 348 345 345 346 346 344 343 345 348 348 348 349 349 349 348 348 349 348 347 351 351 349 352 354 351 346 349 354 352 347 347 347 346 347 349 351 348
347 351 351 350 350 350 348 347 347 347 346 341 340 344 347 347 347 348 350 348 344 345 342 340 343 345 345 347 351 352 348 347 352 355 353 351 349 350 350 349 349 349
349 350 353 353 352 350 348 347 346 345 347 346 343 342 344 346 346 346 349 349 344 338 336 335 337 339 341 345 349 351 349 348 349 352 353 353 352 351 351 351 351 351
355 353 353 353 352 350 348 346 346 344 345 347 347 345 343 344 346 346 345 344 340 334 333 333 333 335 338 341 347 350 349 348 349 350 350 351 352 351 351 352 353 352
357 357 355 353 353 352 349 346 346 345 343 344 347 347 345 342 344 347 344 339 334 331 335 335 331 332 335 337 342 349 350 349 349 350 350 350 350 351 352 352 353 353
357 358 357 356 354 353 352 349 347 346 345 344 344 346 347 344 342 345 347 343 337 330 332 339 337 331 331 334 337 344 348 349 349 348 349 350 349 349 350 350 351 352
357 358 358 358 356 355 354 352 350 348 347 345 345 345 346 346 343 343 345 348 346 338 332 337 342 339 331 330 334 338 340 345 349 349 348 348 349 348 348 349 349 349
357 358 358 358 358 357 356 356 353 352 350 347 347 347 346 346 345 344 344 346 349 348 341 337 341 344 339 331 330 333 334 337 345 349 349 348 348 348 347 347 347 347
358 358 358 358 358 357 357 357 355 354 353 351 349 349 348 348 348 347 345 344 346 350 349 346 342 342 341 334 329 330 331 333 337 344 348 348 347 347 346 345 345 345
355 358 359 358 358 357 357 356 355 355 355 354 353 353 352 351 351 351 349 347 345 345 349 351 348 344 340 335 329 327 328 330 334 340 344 345 346 347 346 345 344 343
352 356 358 358 357 357 357 357 356 355 354 354 354 355 355 355 354 353 353 352 349 347 346 348 350 349 345 337 330 326 326 327 332 339 343 344 345 346 346 345 344 343
354 355 355 356 357 358 358 358 358 357 357 356 356 355 356 357 355 354 354 353 351 350 349 348 349 351 350 345 338 331 327 325 327 333 341 343 343 345 346 346 345 344
353 354 354 355 356 357 357 357 357 358 358 357 357 356 356 357 357 356 355 353 351 350 350 351 350 350 351 351 349 342 336 331 327 328 334 339 342 343 344 345 347 346
349 352 354 356 356 356 356 356 356 357 358 357 357 356 356 355 356 357 357 356 354 352 351 352 352 351 351 351 352 351 348 344 338 332 331 333 337 340 341 343 344 344
348 350 352 354 356 356 356 356 356 356 356 357 357 357 355 353 354 355 356 357 357 356 355 355 353 353 353 352 351 351 351 350 348 344 339 335 334 335 339 343 342 339
343 345 348 350 353 354 355 355 355 355 355 355 355 356 354 353 353 352 353 355 357 357 357 356 355 355 355 354 352 351 350 349 349 349 348 346 342 337 337 340 341 339
336 337 339 342 345 348 351 353 354 355 355 355 355 355 353 353 353 352 350 352 354 355 356 356 356 356 357 356 354 352 351 350 350 349 349 350 350 347 343 341 339 337
335 333 332 334 336 339 342 347 351 353 354 355 355 355 354 354 354 355 354 352 352 352 353 353 354 355 356 357 357 355 353 351 350 350 350 350 351 352 350 348 344 339

ECMWFNIL_850_thetae_114.txt.gz
Theta_e
336 338 341 348 351 351 351 347 345 350 354 352 349 348 352 353 351 352 350 347 347 348 346 344 346 347 346 347 347 348 348 344 342 341 338 337 335 338 348 350 347 349
334 335 337 342 345 347 349 349 346 347 352 354 354 352 352 353 353 353 352 347 345 347 347 345 345 345 345 346 345 345 347 346 344 345 341 338 336 338 346 350 349 349
330 332 334 338 341 343 347 350 347 346 349 352 354 353 350 350 351 352 353 350 345 344 345 346 345 343 343 346 345 344 345 345 345 349 348 342 337 337 344 350 350 349
329 330 330 335 341 344 346 350 350 348 349 351 352 352 351 350 348 346 348 348 345 344 345 345 345 345 343 346 347 344 344 345 345 350 352 346 339 338 342 348 349 350
333 333 330 331 342 348 348 350 351 350 350 350 350 351 352 353 350 344 340 341 342 345 346 344 344 346 344 344 347 346 345 347 345 346 350 347 341 339 344 349 349 349
338 337 335 330 338 349 351 350 351 351 349 349 350 351 351 353 352 348 342 338 338 342 346 345 342 344 345 344 345 346 344 346 348 347 347 347 343 341 346 352 350 347
343 340 340 336 337 346 351 351 350 350 350 349 350 350 351 351 352 351 348 341 338 340 346 350 345 342 344 344 345 346 345 346 350 351 347 345 345 345 349 352 351 349
349 344 342 341 341 345 349 351 350 349 349 349 350 349 350 351 349 350 349 344 343 345 347 352 351 346 344 345 345 345 345 345 348 351 349 346 345 346 348 351 352 353
354 351 346 342 344 348 349 349 350 349 348 348 349 349 349 350 349 349 348 345 346 350 350 350 352 351 348 347 346 344 343 345 348 351 349 346 345 345 344 347 350 353
356 356 353 348 348 349 349 348 348 349 348 347 348 349 348 349 349 350 350 345 343 349 350 348 349 352 350 348 348 347 345 345 349 353 352 348 345 345 344 344 346 348
355 355 355 354 353 351 349 348 347 348 349 348 348 348 348 349 349 349 351 349 343 343 345 342 342 348 349 347 347 347 345 344 345 350 354 353 348 345 346 347 346 345
356 355 353 353 354 353 350 348 347 346 347 349 348 346 346 348 348 348 349 351 348 344 341 336 334 339 342 343 344 345 345 344 344 345 348 350 350 350 350 351 350 349
357 355 353 351 352 352 350 348 347 346 346 348 349 347 345 345 347 348 348 349 350 349 345 339 333 331 334 337 340 345 348 348 346 346 345 344 345 347 350 351 352 353
356 355 354 353 351 351 350 348 347 346 345 346 348 348 347 344 343 346 348 347 348 349 349 347 341 334 332 333 334 340 347 349 347 345 345 346 344 344 348 352 353 354
355 354 354 353 352 353 353 349 347 346 344 344 345 346 348 346 342 342 346 347 347 347 348 349 349 343 335 331 331 332 338 345 346 343 342 346 349 348 349 351 352 352
352 353 353 353 354 355 355 353 351 348 345 343 344 345 346 347 344 342 342 345 347 347 346 347 349 349 342 333 329 329 329 336 343 344 341 341 346 350 350 350 350 350
351 352 353 353 354 354 355 354 352 352 350 347 345 344 344 345 346 345 343 343 345 347 348 348 346 348 346 338 333 330 328 329 335 341 344 343 344 347 349 348 347 348
350 350 352 353 354 355 355 353 351 352 353 352 350 349 347 345 344 345 345 344 344 345 348 350 349 348 347 343 337 333 331 329 330 334 341 343 344 345 347 347 345 345
351 351 352 352 353 353 354 354 352 350 351 352 352 351 350 348 347 347 346 345 345 344 345 347 349 350 349 347 344 339 336 334 332 333 337 342 344 344 344 346 346 345
350 351 352 352 352 352 353 354 353 351 349 348 349 350 349 349 350 350 349 349 348 347 346 345 346 348 349 349 348 346 344 342 339 337 337 341 344 344 343 344 346 346
347 348 349 350 351 353 353 353 353 353 351 349 348 349 349 350 352 352 352 352 352 351 350 349 347 347 349 349 349 349 349 348 347 344 341 340 341 342 342 343 344 345
341 343 345 346 348 350 352 352 352 353 353 351 351 352 353 352 353 353 353 354 355 355 354 352 351 349 349 349 350 350 351 350 351 350 349 346 344 341 339 339 341 343
338 338 339 343 345 347 349 350 350 351 352 352 352 353 354 354 352 352 353 353 354 354 354 354 353 352 350 350 350 351 351 352 351 351 352 351 349 346 343 340 339 339
339 337 334 335 339 343 345 347 348 350 351 351 353 354 354 354 353 353 353 352 352 353 354 354 354 353 352 351 351 351 352 352 352 352 352 351 351 350 349 346 344 341
337 337 334 332 332 335 339 342 346 349 350 350 351 353 354 354 355 355 354 353 352 352 352 353 354 354 353 352 351 351 351 352 353 353 353 352 351 351 350 349 349 348
331 332 334 336 335 331 331 334 338 343 349 349 348 349 351 353 355 356 356 355 354 353 352 352 352 352 353 354 353 353 352 353 353 353 354 353 353 352 351 350 349 349

ECMWFNIL_850_thetae_120.txt.gz
Theta_e
342 343 346 348 349 349 347 349 349 347 345 343 343 344 344 343 344 344 343 342 342 343 345 346 345 343 343 344 343 342 340 338 337 338 338 338 339 340 341 344 346 346
339 340 343 346 348 348 347 347 347 346 345 345 344 344 344 344 344 344 344 343 343 344 345 346 346 343 343 346 345 342 341 340 338 337 337 337 336 337 338 341 345 347
337 337 340 343 345 348 349 348 346 345 345 346 345 345 345 345 345 345 345 344 344 345 345 345 345 344 344 346 345 344 344 344 342 339 338 337 336 336 336 338 343 346
334 335 337 339 342 345 347 348 345 344 344 345 346 345 344 346 347 347 346 346 346 346 346 345 344 344 345 346 345 345 345 345 345 343 340 338 337 336 336 336 339 343
333 334 336 338 339 342 345 346 345 344 343 343 345 345 344 345 347 347 348 348 347 346 346 346 345 344 344 345 344 345 345 344 345 346 343 340 339 338 336 336 337 339
335 335 335 337 338 341 342 342 342 341 341 341 343 344 345 344 344 345 347 348 348 346 346 345 345 344 344 344 343 344 344 343 344 345 344 342 342 341 338 337 338 340
336 336 336 336 339 341 341 340 339 338 338 340 341 343 344 345 344 344 344 346 347 346 344 345 345 345 345 344 343 343 344 344 343 344 344 343 343 343 341 338 338 340
332 334 335 335 337 341 342 341 341 340 339 341 342 342 345 346 345 345 344 345 347 346 343 342 342 343 345 345 345 344 344 344 343 344 345 344 343 343 343 341 339 339
336 333 332 333 333 335 338 339 341 343 343 344 344 344 345 347 347 346 345 345 347 347 345 342 340 340 343 345 346 345 343 343 344 343 343 344 345 345 345 343 342 341
348 342 336 336 336 334 334 335 339 346 348 347 348 348 347 348 348 347 346 345 345 346 346 343 339 338 340 344 346 347 346 344 344 343 342 343 345 347 346 345 343 343
350 350 346 345 345 342 338 335 340 348 352 350 349 350 349 348 349 348 348 346 344 344 344 343 340 338 337 340 344 348 349 347 345 343 343 342 342 344 346 346 344 343
347 350 352 354 354 352 348 344 343 349 352 352 351 350 349 349 350 349 349 347 345 343 343 342 341 340 337 338 341 345 347 347 346 344 343 342 340 340 342 344 343 342
347 346 351 356 357 356 354 351 347 347 348 350 351 350 349 349 348 348 348 348 346 345 344 343 342 340 338 336 338 340 341 341 343 343 342 341 340 340 340 341 341 340
349 347 350 356 357 357 357 356 352 348 346 347 348 349 349 348 347 346 346 347 348 347 346 345 344 343 340 336 335 335 336 336 337 338 339 339 339 339 340 340 340 339
350 350 352 355 355 356 357 357 355 353 350 348 348 348 348 348 348 346 346 346 347 347 347 347 346 345 342 340 336 334 333 334 334 335 336 336 337 338 339 340 340 339
350 351 353 354 354 355 355 355 355 355 352 350 349 348 347 347 348 348 347 346 347 347 348 348 347 345 344 342 341 338 336 334 332 332 333 333 334 335 336 337 338 338
350 351 353 354 354 354 354 354 354 354 352 351 349 348 347 346 346 348 348 347 346 346 346 347 346 346 345 343 342 342 341 340 337 333 331 331 331 332 332 333 335 336
349 350 350 351 353 354 354 353 353 352 352 351 350 348 348 346 345 346 348 348 348 347 345 345 345 345 345 345 343 342 343 343 342 340 337 333 331 330 330 330 331 333
350 350 350 349 350 352 352 351 351 352 353 353 352 350 349 347 346 345 346 347 348 348 347 345 344 344 344 345 345 345 344 344 344 344 343 341 338 335 333 331 331 331
349 350 351 350 351 351 351 352 351 352 352 353 353 351 350 349 348 346 345 344 344 345 346 346 345 345 344 344 345 345 346 345 346 346 346 346 345 343 341 339 338 336
344 347 348 350 350 350 351 351 352 352 352 352 352 351 350 350 349 348 347 345 343 344 344 344 344 346 346 345 344 345 346 347 347 347 348 348 348 347 347 345 345 343
339 341 343 344 346 348 350 350 350 351 351 351 351 351 351 350 350 349 349 348 347 346 345 344 343 346 349 349 347 346 347 348 348 348 348 349 349 349 348 348 348 346
336 337 338 338 339 342 344 346 347 347 348 350 350 351 351 352 351 350 350 350 349 349 348 346 344 346 349 351 351 350 348 348 349 349 350 350 350 350 350 350 349 349
336 335 335 336 335 335 337 337 339 341 343 346 347 348 350 351 352 352 352 352 350 349 349 348 347 347 348 350 351 352 352 351 351 351 350 351 350 350 350 350 350 350
332 331 332 334 334 334 333 332 333 336 338 340 341 344 346 348 350 351 352 353 352 351 351 350 349 348 348 348 349 349 351 350 351 351 350 351 351 351 351 351 350 350
323 323 326 331 334 333 331 331 333 335 336 337 337 338 340 342 345 346 348 349 351 352 353 353 352 351 350 350 350 350 351 351 351 351 352 352 352 352 352 352 352 352

ECMWFNIL_850_thetae_123.txt.gz
Theta_e
348 348 347 346 347 349 348 347 346 344 341 340 340 341 341 341 341 340 339 340 340 340 340 341 340 340 340 341 341 341 342 342 340 340 340 340 341 343 343 343 343 344
348 349 348 346 347 349 349 348 347 345 344 341 340 341 342 342 342 341 341 340 341 341 341 342 343 342 341 341 341 342 343 341 339 339 338 338 338 339 340 342 343 344
345 347 347 347 347 348 348 348 347 346 344 343 342 342 342 342 342 343 342 341 341 341 342 343 344 345 344 342 342 343 344 342 340 340 338 337 337 337 337 339 340 342
340 343 344 344 346 347 348 348 347 345 344 344 344 343 343 343 343 343 343 343 342 342 343 344 344 345 345 344 342 344 344 342 342 343 341 338 337 336 336 336 336 338
336 339 340 341 343 346 348 348 348 347 344 344 344 344 343 343 344 344 343 343 343 343 344 344 344 345 345 343 343 344 344 343 343 344 343 341 338 337 337 336 335 335
334 336 337 338 338 341 345 347 349 348 346 344 344 345 344 343 343 345 344 344 343 343 344 344 344 344 344 343 343 344 344 343 343 343 343 342 341 339 338 337 336 335
332 333 334 335 336 337 340 342 345 348 347 347 346 345 345 345 343 344 345 345 345 345 344 343 343 344 343 343 343 342 342 342 343 343 342 342 342 342 341 340 338 337
333 333 333 334 334 336 336 337 339 343 346 348 347 346 346 347 346 345 346 347 347 347 345 343 342 343 343 343 343 342 341 341 343 343 341 341 342 342 342 342 341 339
335 335 335 334 334 334 335 336 336 338 341 344 346 346 347 347 348 347 348 348 347 347 346 345 343 342 342 342 342 342 342 342 342 342 342 341 342 342 342 342 342 341
333 333 335 336 336 335 335 335 336 336 337 339 342 345 347 348 348 348 349 349 348 346 346 346 344 342 341 340 341 341 341 342 342 342 342 342 341 342 342 343 343 342
335 333 333 334 334 335 334 334 335 336 336 336 338 341 345 348 349 349 350 350 349 347 347 346 346 344 341 338 338 339 340 341 342 342 342 342 342 342 342 343 344 342
345 341 337 333 330 329 328 329 331 333 334 334 336 339 342 347 349 350 350 350 349 348 348 347 346 346 344 339 337 337 339 340 341 342 342 342 342 342 342 342 342 342
350 348 344 339 333 329 328 330 333 335 335 334 336 339 342 345 348 349 350 349 349 349 349 348 347 346 346 344 342 340 339 340 342 343 344 344 343 342 341 341 340 341
351 351 350 347 343 339 338 340 342 344 343 341 340 343 345 346 348 348 349 348 348 349 348 348 348 347 347 346 346 344 342 341 341 343 345 345 344 343 342 342 341 341
352 353 353 352 350 349 349 351 352 351 350 348 346 346 348 349 350 349 349 348 347 347 348 348 348 347 347 347 347 346 344 342 340 340 340 340 340 340 340 340 340 340
354 354 353 352 352 351 350 352 354 353 351 349 347 345 346 348 349 349 349 348 347 347 347 347 346 347 347 346 347 346 346 345 344 342 340 338 337 335 334 335 335 336
352 352 351 351 351 351 349 349 351 352 353 353 349 345 345 347 348 348 348 347 348 347 347 347 346 346 345 346 346 346 346 347 346 345 344 342 341 339 336 333 332 332
350 350 350 351 351 351 351 351 351 352 354 355 353 349 347 348 348 348 348 347 347 347 347 348 347 346 346 346 346 346 346 347 347 346 346 345 345 344 342 340 336 334
349 349 350 350 351 351 352 352 351 351 352 353 353 350 348 348 349 348 348 347 346 346 346 348 348 348 347 347 346 346 345 346 346 347 347 347 346 345 345 345 343 341
349 350 349 349 350 350 351 351 351 351 350 351 351 350 349 349 349 349 348 346 346 345 346 347 348 349 348 348 347 346 345 344 345 346 347 347 347 347 346 346 346 346
347 348 349 349 349 349 349 350 350 350 350 350 350 350 350 350 350 350 349 347 345 345 345 346 347 348 348 348 347 347 345 345 344 344 345 346 347 347 347 347 347 347
343 344 344 345 346 347 347 348 348 348 349 350 350 350 351 351 350 350 350 349 347 346 346 345 345 346 346 346 346 345 345 345 345 345 344 345 346 347 347 347 348 348
341 341 340 340 341 342 343 343 343 343 344 345 347 349 351 351 350 350 351 351 350 349 349 348 346 345 344 344 344 343 343 344 345 345 345 345 346 346 347 348 348 348
338 338 338 338 338 338 339 339 340 340 341 341 342 344 347 348 348 349 351 351 351 351 351 350 350 349 348 347 346 345 344 344 345 346 347 347 346 346 347 348 348 349
334 335 336 337 336 335 337 340 340 340 340 341 340 340 340 342 344 346 348 348 349 351 352 351 351 351 350 350 349 348 347 347 347 348 350 350 350 349 349 349 349 349
331 332 335 335 333 331 334 338 339 338 339 340 341 340 339 340 341 342 343 343 343 345 348 350 351 351 352 352 351 351 350 349 349 349 350 351 351 351 351 351 351 351

ECMWFNIL_850_thetae_126.txt.gz
Theta_e
348 349 348 348 348 348 348 348 347 346 344 341 341 340 339 339 339 340 340 339 339 339 338 338 340 341 341 340 340 341 341 342 343 343 342 341 341 342 343 344 345 345
345 348 348 348 348 347 348 349 348 347 346 344 343 341 341 341 340 340 340 339 339 339 339 339 340 340 340 340 340 340 340 341 341 341 340 339 339 339 340 341 342 344
342 347 347 346 346 346 348 349 349 348 347 347 345 342 341 342 342 342 341 341 340 340 340 340 340 341 341 341 341 339 340 340 341 341 339 338 337 337 337 337 339 341
338 344 346 346 346 346 347 349 348 348 348 347 345 343 342 343 343 343 342 342 342 341 341 341 341 342 343 344 343 341 340 340 342 341 339 338 337 336 336 336 336 338
335 340 343 344 345 346 346 347 347 347 346 346 345 344 343 344 344 343 343 343 343 342 342 342 342 343 344 344 345 344 342 341 342 342 341 340 339 337 336 336 336 336
333 336 339 341 342 343 344 345 346 346 345 345 345 345 345 345 344 344 344 344 343 343 343 343 343 344 344 344 345 344 343 343 343 342 342 342 342 340 337 336 336 335
332 333 336 338 339 339 340 341 343 345 346 346 345 344 344 345 345 345 345 345 345 345 344 343 344 344 344 344 344 343 343 343 343 343 342 342 342 341 340 338 337 336
332 333 334 335 336 336 335 335 338 342 345 347 346 345 344 344 344 344 345 345 346 346 346 345 345 345 345 344 343 343 343 343 343 342 342 342 341 341 341 341 340 338
334 333 333 334 334 334 333 333 334 337 340 344 345 346 345 344 344 344 345 345 345 346 347 347 348 347 346 344 343 342 342 343 343 342 342 342 342 341 341 342 342 341
336 335 334 333 332 332 332 332 333 334 335 337 340 343 345 344 343 343 345 346 346 347 347 348 348 347 347 346 345 343 342 342 343 343 343 343 343 342 342 343 343 342
338 335 335 335 334 333 333 332 333 333 333 334 336 338 341 343 344 344 345 346 346 347 347 348 348 347 347 347 347 346 344 342 342 343 343 343 343 343 343 343 343 343
342 339 336 335 335 335 335 335 334 334 334 334 335 336 338 340 343 345 346 347 347 347 348 348 348 348 348 347 347 347 346 343 341 340 342 342 342 343 344 344 344 343
347 346 343 340 337 334 334 335 335 335 335 334 334 335 335 337 339 343 346 348 349 349 348 348 348 348 348 347 347 347 347 345 343 340 340 341 341 342 343 344 344 344
347 349 349 347 343 340 336 335 335 335 335 333 332 333 333 333 333 338 344 347 348 349 349 348 348 348 348 348 347 347 347 347 346 344 342 341 341 341 341 342 342 342
347 348 350 350 349 348 345 342 339 336 334 333 335 337 338 336 334 335 339 343 345 347 348 348 347 347 347 347 347 347 347 347 347 347 346 345 343 342 341 340 340 340
349 349 350 350 350 350 350 348 344 339 337 339 342 345 345 343 339 337 338 340 343 345 347 347 347 346 346 346 346 346 346 347 347 348 347 347 347 346 344 343 341 341
350 351 351 351 352 351 352 351 348 344 343 346 349 350 349 348 345 341 339 339 341 343 345 346 346 347 347 346 346 346 346 347 347 347 347 347 347 347 347 346 345 345
350 352 352 352 353 353 353 353 351 348 348 349 351 351 352 352 351 347 342 340 341 342 343 344 344 345 346 347 347 347 347 347 347 346 347 347 347 347 346 346 346 346
350 351 352 352 352 352 352 352 351 350 350 350 351 352 353 354 354 352 349 346 346 346 346 345 345 345 346 346 346 346 347 347 347 346 346 345 345 345 345 346 346 346
349 350 350 350 350 350 351 351 351 351 352 352 352 352 353 355 355 353 352 350 349 348 347 347 347 346 346 346 345 345 346 347 347 347 347 345 344 343 343 344 345 346
349 349 349 349 350 350 350 350 351 351 352 352 352 352 352 353 352 352 351 350 349 348 348 348 348 347 347 346 345 345 346 347 347 348 348 347 346 344 344 343 344 345
346 346 347 347 347 348 349 349 350 350 350 350 350 350 350 350 350 350 350 350 349 349 348 348 348 348 346 346 345 345 345 346 347 347 347 347 346 345 345 344 344 344
342 342 343 344 343 344 346 346 347 347 347 348 348 348 349 349 349 349 349 350 350 350 350 350 349 349 348 346 345 344 345 345 345 345 345 345 345 345 344 344 344 344
340 340 340 340 340 340 341 342 343 343 344 344 345 345 347 347 347 347 347 348 349 349 350 350 350 349 349 347 346 346 346 346 345 345 344 344 345 345 346 346 347 346
339 338 338 337 337 338 338 338 338 340 340 341 341 342 343 344 344 344 343 345 346 346 347 348 349 350 349 349 349 348 348 349 348 348 347 347 346 347 348 349 350 349
331 332 333 333 334 336 336 335 335 338 340 341 341 340 340 339 340 340 341 342 342 343 344 344 346 347 348 348 349 349 350 350 350 350 350 349 348 348 349 349 350 351

ECMWFNIL_850_thetae_129.txt.gz
Theta_e
346 347 348 349 349 348 349 349 348 347 345 344 343 341 341 340 340 340 340 340 339 339 339 339 338 340 341 341 342 342 343 342 343 345 345 345 344 343 343 343 343 344
343 347 349 349 349 349 349 349 349 348 347 345 343 343 343 342 341 340 340 341 340 340 341 339 339 340 341 342 342 342 342 342 343 344 344 343 343 341 340 340 341 342
340 344 348 348 348 349 349 349 350 350 349 347 346 347 346 344 343 342 342 342 341 341 341 340 340 340 340 341 342 342 341 341 342 343 343 343 342 340 340 339 338 338
336 340 346 348 348 348 349 349 350 350 349 349 349 349 348 346 344 343 343 343 342 342 341 341 341 341 341 341 342 343 343 342 342 342 343 343 343 341 340 339 338 337
335 336 342 347 347 347 348 348 350 350 350 350 349 349 348 346 346 345 344 344 343 343 342 342 342 342 342 342 343 344 344 344 343 343 343 344 344 343 342 341 339 337
334 334 337 343 347 347 347 348 349 350 350 349 349 349 348 347 347 346 346 345 344 344 344 343 343 343 343 344 344 344 344 344 344 343 343 344 344 344 344 343 341 340
332 332 333 338 344 346 347 347 348 348 348 348 348 348 348 348 348 348 347 346 346 345 344 344 344 344 345 345 345 345 345 344 344 344 344 343 343 344 344 343 343 342
332 331 332 334 339 342 344 345 346 346 347 347 347 347 347 347 348 348 348 347 347 346 347 346 345 345 346 347 347 346 345 345 344 344 344 343 343 343 343 343 343 343
334 332 332 333 335 337 338 340 340 341 343 345 346 347 347 347 347 346 347 347 347 348 348 348 348 347 348 348 348 347 346 345 345 344 344 343 343 343 343 343 343 343
337 336 335 333 333 334 335 336 336 336 338 341 343 344 345 346 346 346 345 345 347 348 349 349 349 349 349 349 348 347 346 346 345 344 343 344 343 343 343 343 343 343
341 339 338 336 334 333 333 333 334 334 334 336 338 339 341 342 343 343 343 343 344 346 348 349 349 350 349 348 348 348 347 347 346 343 342 342 343 343 343 343 343 343
343 342 341 338 336 335 334 333 333 333 332 333 334 335 336 338 339 340 341 342 343 344 345 346 348 349 349 348 348 347 347 347 345 344 342 340 340 341 342 342 343 343
345 344 343 341 339 337 336 336 335 334 333 333 333 333 334 335 336 337 338 340 342 344 344 345 346 347 348 348 348 347 347 346 346 345 344 343 342 340 341 342 343 343
345 345 345 344 344 341 339 338 337 336 335 335 335 334 334 335 335 335 336 337 339 341 344 345 345 346 346 347 348 347 347 347 347 347 347 346 346 344 343 343 343 343
344 345 346 346 347 346 344 342 339 337 336 336 336 336 335 334 332 332 332 333 334 337 342 344 344 344 344 345 346 347 347 347 347 347 347 347 347 347 346 345 345 344
341 343 345 346 346 348 348 347 345 343 340 339 338 337 336 333 330 329 330 331 331 334 338 342 343 343 343 343 344 345 345 346 346 346 347 347 347 347 347 346 346 346
340 342 343 344 346 347 349 349 349 348 347 345 343 341 338 335 333 333 334 333 333 334 337 340 343 344 343 343 344 344 344 344 345 345 345 346 346 346 346 346 346 346
341 341 342 345 348 349 350 350 350 350 350 350 348 345 343 343 342 342 340 339 338 338 340 341 341 341 341 343 344 345 345 345 345 345 345 345 345 345 345 345 345 345
345 345 345 347 348 350 351 352 351 352 352 352 351 348 347 348 350 350 348 346 346 346 346 345 342 341 341 342 343 344 345 345 345 345 345 345 345 345 345 345 344 344
348 348 347 347 347 349 352 353 352 353 353 353 352 351 350 351 352 353 353 353 352 352 351 349 347 346 345 344 343 343 344 344 345 345 345 345 346 346 346 346 345 344
348 348 347 348 348 349 350 351 351 351 350 350 351 351 351 352 352 353 354 354 354 353 352 351 350 348 348 347 346 346 345 345 345 345 345 345 345 345 346 347 346 345
348 348 348 348 349 349 349 349 349 349 348 348 349 349 349 350 351 352 352 353 352 352 351 351 350 349 348 348 348 347 347 347 347 346 345 344 344 344 345 345 345 345
347 348 348 347 347 347 347 347 347 347 347 347 348 348 348 349 350 350 350 350 350 350 351 350 350 349 348 348 349 349 348 349 348 346 345 344 345 345 344 345 344 344
342 342 341 341 342 343 344 343 344 344 344 344 345 346 347 347 348 348 348 349 349 349 349 349 349 350 349 349 350 349 349 349 349 347 346 346 347 347 346 346 346 345
338 338 338 339 340 342 342 341 340 340 341 341 341 342 343 344 345 345 345 346 346 346 347 347 348 348 349 350 350 350 350 349 349 348 348 349 349 349 349 349 348 348
334 334 334 334 335 338 338 338 338 338 338 338 337 338 339 340 340 341 342 342 342 343 343 344 345 345 346 347 348 348 348 348 348 349 349 350 350 350 350 350 349 349

ECMWFNIL_850_thetae_135.txt.gz
Theta_e
348 349 350 351 352 355 355 354 354 354 354 355 354 354 355 354 353 352 353 352 347 345 344 341 342 341 343 343 341 347 350 349 354 354 345 343 350 354 353 352 352 350
349 350 351 353 353 352 353 354 355 355 354 354 355 355 355 353 351 350 351 350 347 346 343 341 343 341 342 346 342 342 346 346 350 356 353 345 347 352 353 352 350 348
350 351 350 353 354 352 353 354 354 355 354 354 355 355 354 352 349 348 346 346 347 349 345 341 343 342 341 344 343 342 345 343 346 356 357 349 348 353 354 353 351 350
348 353 354 355 355 354 354 354 353 353 354 355 354 354 354 354 352 348 343 341 344 349 347 342 343 344 342 341 341 345 348 345 345 350 351 347 346 350 353 354 353 352
349 352 355 355 355 355 355 355 354 353 353 355 354 354 354 353 353 352 348 342 341 345 348 346 344 344 343 341 340 345 350 350 349 346 343 343 346 350 353 355 355 353
351 350 352 355 357 356 355 355 355 354 353 353 353 354 353 351 351 354 353 348 345 348 351 351 349 348 349 346 341 343 349 353 356 351 343 342 347 352 355 356 355 353
352 350 351 354 356 356 355 355 355 354 354 354 353 354 354 353 352 354 355 353 352 352 353 355 353 351 353 350 343 343 345 349 353 351 345 345 347 349 352 355 354 349
350 351 351 353 355 355 355 356 355 355 355 354 354 354 354 355 354 354 355 354 355 355 354 357 355 350 352 354 351 347 345 348 352 349 344 345 346 345 346 351 353 348
349 350 351 351 353 354 354 354 355 355 354 355 355 354 354 355 354 354 355 354 355 356 354 356 354 349 352 357 354 349 348 351 356 356 351 348 348 349 349 351 354 352
349 348 349 350 351 352 353 353 353 354 354 355 355 354 354 354 354 355 356 352 353 355 351 349 350 349 352 356 354 351 349 349 352 356 356 353 352 354 355 355 355 355
349 347 347 347 347 348 350 351 352 352 353 353 353 352 352 353 353 355 356 354 353 355 352 348 348 349 351 354 356 355 353 352 351 351 352 351 351 353 353 353 353 354
349 347 346 346 345 345 345 347 349 350 352 352 352 352 352 352 353 354 356 356 355 356 356 352 349 351 352 351 354 356 355 356 355 353 354 353 353 354 353 353 354 354
349 348 347 346 344 344 344 344 345 347 348 349 349 350 351 352 352 353 354 356 356 356 357 355 353 355 353 347 350 354 356 357 357 356 356 356 355 355 354 354 355 355
350 350 348 347 345 344 344 344 344 344 345 346 346 347 349 350 351 352 352 354 355 354 355 356 355 356 354 348 348 353 354 354 354 354 356 356 355 355 354 353 353 353
348 350 349 349 348 346 346 346 345 345 344 345 345 345 346 347 348 350 351 352 353 353 353 354 354 355 355 353 352 352 349 348 350 352 354 355 355 355 354 353 353 352
348 349 347 347 349 349 349 348 347 346 346 346 346 345 346 347 347 347 348 350 351 352 352 353 353 353 352 351 352 351 348 346 348 349 352 355 356 355 354 353 352 352
349 351 348 345 347 349 350 351 350 349 349 349 349 349 348 349 349 348 348 349 350 351 351 352 352 351 350 349 350 350 347 345 346 348 350 353 353 353 353 352 351 350
351 352 350 346 345 346 348 350 351 351 350 350 352 353 352 351 351 351 350 349 349 349 349 349 349 349 349 349 350 350 348 346 347 349 351 350 349 350 351 351 350 349
351 350 348 347 346 348 349 349 348 348 348 347 349 350 351 351 352 351 350 349 348 348 347 347 347 347 347 347 348 349 348 345 344 346 348 348 349 350 350 350 350 351
352 351 349 349 350 350 350 348 346 347 347 347 347 346 347 348 350 352 352 350 348 348 349 348 348 347 347 346 346 345 343 341 340 343 346 347 346 348 349 350 351 352
352 351 351 352 351 350 349 347 347 348 347 349 349 348 348 348 348 352 353 351 349 349 351 350 348 347 346 344 343 342 339 337 337 340 344 345 345 347 349 352 353 353
350 349 349 349 349 348 346 346 347 346 346 347 347 348 351 351 350 352 354 353 352 353 353 349 344 344 345 342 342 343 342 341 340 340 342 345 347 350 352 354 355 354
349 349 348 347 346 346 346 347 347 346 345 344 344 345 349 351 352 354 353 352 352 353 352 347 343 343 344 344 345 348 348 348 347 346 346 347 349 351 352 352 351 351
350 350 349 348 348 348 348 349 349 347 345 344 344 345 347 348 351 353 352 351 351 351 350 346 344 345 346 347 349 351 352 352 351 350 350 349 350 351 351 349 348 349
350 349 348 348 348 349 349 350 349 347 346 346 347 347 348 349 350 351 351 350 350 350 349 347 346 347 348 349 351 351 351 351 351 351 351 352 352 352 351 350 349 350
348 348 348 347 348 348 348 348 348 347 347 348 348 348 349 349 349 349 350 350 349 349 349 348 348 349 349 349 349 349 349 349 350 351 352 353 353 351 351 351 350 351